Home > Time Zones > World Clock > Weather > Aktau > Past weeks

Flag for Kazakhstan Weather past 2 weeks in Aktau, Kazakhstan

Now
75 °F

Clear.


Feels Like: 76 °F
Forecast: 82 / 97 °F
Wind: 13 mph from Northeast

Location: Aktau

Current Time: Jul 25, 2014 at 4:48:34 AM

Latest Report: Jul 25, 2014 at 4:00 AM


Visibility: 10 mi

Pressure: 29.77 "Hg

Humidity: 24%

Dew point: 36 °F

Location of AktauLocation

Historic Weather in Aktau — Graph

°F

Aktau temperature yesterday

Maximum temperature yesterday: 97 °F (at 2:30 PM)
Minimum temperature yesterday: 64 °F (at 5:30 AM)
Average temperature yesterday: 82 °F

Past Weeks' High & Low Weather Summary

 TemperatureHumidityPressure
High97 °F (Jul 16, 12:00 PM)94% (Jul 10, 6:30 AM)30.01 "Hg (Jul 10, 6:30 AM)
Low63 °F (Jul 14, 6:00 AM)7% (Jul 13, 8:00 PM)29.56 "Hg (Jul 19, 8:00 PM)
Average79 °F34%29.85 "Hg
* Reported Jul 10 3:00 AM — Jul 25 3:30 AM, Aktau, Weather by CustomWeather, © 2014

Note: Actual official high and low records may vary slightly from our data, if they occured in-between our weather recording intervals... More about our weather records

Advertising

Aktau weather history for previous 24 hours

 ConditionsComfort  
Time TempWeatherWind HumidityBarometerVisibility
3:30 AM
Jul 25
73 °FClear.13 mph25%29.77 "Hg10 mi
3:00 AM75 °FClear.10 mph24%29.77 "Hg10 mi
2:30 AM73 °FClear.10 mph25%29.77 "Hg10 mi
2:00 AM75 °FClear.10 mph24%29.80 "Hg10 mi
1:30 AM75 °FClear.10 mph24%29.80 "Hg10 mi
1:00 AM77 °FClear.13 mph22%29.80 "Hg10 mi
12:30 AM77 °FClear.13 mph22%29.80 "Hg10 mi
12:00 AM81 °FClear.20 mph20%29.80 "Hg10 mi
11:30 PM
Jul 24
82 °FClear.20 mph17%29.80 "Hg10 mi
11:00 PM84 °FSunny.20 mph16%29.80 "Hg10 mi
10:30 PM84 °FPassing clouds.17 mph14%29.80 "HgN/A
10:00 PM81 °FSunny.1 mph28%29.80 "Hg10 mi
9:30 PM81 °FSunny.1 mph39%29.77 "Hg10 mi
9:00 PM82 °FSunny.6 mph35%29.77 "Hg10 mi
8:30 PM86 °FSunny.6 mph24%29.77 "Hg10 mi
8:00 PM88 °FSunny.8 mph19%29.77 "Hg10 mi
7:30 PM90 °FPassing clouds.8 mph20%29.77 "HgN/A
7:00 PM91 °FPassing clouds.8 mph15%29.77 "HgN/A
6:30 PM93 °FPassing clouds.10 mph11%29.77 "HgN/A
5:30 PM93 °FPassing clouds.10 mph11%29.80 "HgN/A
5:00 PM91 °FSunny.10 mph13%29.80 "Hg10 mi
4:00 PM93 °FSunny.13 mph13%29.80 "Hg10 mi
3:30 PM97 °FPassing clouds.10 mph8%29.80 "HgN/A
3:00 PM95 °FPassing clouds.10 mph9%29.83 "HgN/A
2:30 PM97 °FPassing clouds.10 mph9%29.83 "HgN/A
2:00 PM95 °FPassing clouds.13 mph9%29.83 "HgN/A
1:30 PM95 °FPassing clouds.15 mph9%29.86 "HgN/A
1:00 PM95 °FSunny.13 mph9%29.86 "Hg10 mi
12:30 PM95 °FSunny.13 mph9%29.86 "Hg10 mi
12:00 PM93 °FSunny.15 mph10%29.89 "Hg10 mi
11:30 AM91 °FSunny.15 mph10%29.89 "Hg10 mi
10:30 AM88 °FSunny.17 mph13%29.89 "Hg10 mi
10:00 AM86 °FSunny.15 mph13%29.89 "Hg10 mi
9:30 AM82 °FSunny.15 mph16%29.89 "Hg10 mi
9:00 AM81 °FSunny.13 mph18%29.92 "Hg10 mi
8:30 AM77 °FSunny.13 mph21%29.92 "Hg10 mi
8:00 AM73 °FClear.10 mph25%29.92 "Hg10 mi
7:30 AM72 °FClear.13 mph27%29.92 "Hg10 mi
7:00 AM68 °FClear.10 mph30%29.92 "Hg10 mi
6:30 AM64 °FClear.10 mph34%29.92 "Hg10 mi
6:00 AM64 °FClear.10 mph34%29.89 "Hg10 mi
5:30 AM64 °FClear.10 mph34%29.92 "Hg10 mi
5:00 AM66 °FClear.10 mph32%29.92 "Hg10 mi
4:30 AM66 °FClear.8 mph32%29.92 "Hg10 mi
4:00 AM68 °FPassing clouds.6 mph33%29.92 "HgN/A
Weather by CustomWeather, © 2014

See weather overviewHow to use our weather pages